Wind_Speed
17 18 17 17 16 16 16 15 16 15 16 16 15 16 17 18 18 18 19 18 18 19 20 20 21 21 21 21 21 21 21 20 20 20 20 20 20 21 21 22 22 22 23
20 20 20 19 18 18 18 18 18 17 17 17 17 17 18 19 20 20 20 20 20 21 22 22 23 23 22 22 23 23 23 23 23 22 22 22 22 23 23 24 24 24 24
23 23 22 21 20 20 20 21 20 19 19 19 19 19 20 21 21 21 21 21 22 23 23 24 24 24 24 24 24 24 24 25 25 24 23 24 24 24 25 26 26 26 26
25 25 24 23 23 23 23 23 22 21 21 21 22 22 22 22 22 22 23 23 24 24 25 25 25 25 26 26 26 26 26 26 26 26 26 25 25 26 27 27 28 28 28
27 27 27 26 26 26 25 25 24 23 23 24 24 24 25 24 23 24 25 25 26 26 26 27 27 27 27 28 27 27 27 28 28 27 27 27 27 28 28 28 28 28 28
28 28 29 28 28 27 27 27 26 25 25 25 26 26 26 26 25 26 26 27 27 28 28 28 28 29 29 29 28 28 28 28 28 29 29 29 29 30 30 29 30 29 29
29 29 30 30 29 29 29 29 28 28 27 27 28 28 28 28 27 28 28 29 29 29 29 29 30 30 30 29 29 29 29 30 30 30 30 30 31 31 31 31 31 31 30
32 31 32 32 32 32 32 31 31 31 30 30 30 30 30 30 30 30 30 30 30 31 31 31 31 31 31 30 30 30 30 30 31 31 32 32 32 32 32 33 32 32 31
33 33 33 33 33 33 34 33 32 32 32 32 32 32 33 32 32 32 33 33 32 32 32 33 33 33 32 32 32 32 32 32 32 33 33 33 33 33 32 33 32 32 31
33 33 34 34 35 35 35 35 34 34 34 34 33 34 34 34 33 33 34 34 34 33 34 34 34 34 33 32 33 33 33 33 33 33 33 32 32 32 32 33 33 32 32
33 34 34 35 36 36 35 35 35 36 36 35 36 36 36 35 34 34 35 36 35 35 34 34 34 34 34 34 34 33 33 33 33 33 32 32 31 31 32 32 32 32 32
34 34 35 36 36 36 36 36 36 36 37 37 37 37 37 37 36 36 37 36 36 35 35 34 34 34 35 35 34 34 33 33 33 32 32 32 31 30 31 31 31 32 31
35 36 36 36 37 36 36 37 37 38 38 38 39 39 38 38 37 37 37 37 36 35 34 34 34 34 35 34 33 32 33 32 33 32 32 32 32 32 32 31 31 31 31
36 37 36 36 36 36 36 37 37 38 38 38 38 38 37 37 37 37 36 36 36 35 35 34 34 33 32 33 32 32 31 31 31 31 31 32 32 32 31 31 31 31 31
36 36 36 36 36 35 35 36 37 38 38 38 37 37 37 36 36 35 34 33 33 34 33 33 32 32 32 31 31 31 31 30 29 29 30 31 32 32 31 31 31 30 31
35 34 35 35 35 34 35 35 35 35 36 35 34 34 33 33 34 33 33 32 32 32 32 31 31 32 31 31 30 30 30 29 29 29 30 31 31 31 30 30 29 29 29
34 33 33 33 32 33 33 33 33 32 32 32 32 32 33 33 34 34 33 33 32 33 32 31 31 31 30 30 30 30 29 29 29 30 30 29 29 30 29 28 28 29 29
32 32 32 31 31 32 32 32 32 31 31 30 30 31 32 33 33 33 33 32 32 32 31 30 30 30 30 30 30 30 29 29 28 29 29 29 28 28 28 28 28 28 28
31 31 31 31 31 31 31 31 31 31 30 30 31 32 32 33 32 32 31 31 31 30 29 28 29 29 29 29 29 29 28 28 28 28 28 28 28 28 29 29 28 28 29
30 30 29 30 30 30 30 29 29 29 29 29 30 31 31 31 31 31 30 29 28 28 27 27 27 27 28 28 28 28 27 28 28 28 28 29 29 30 30 30 30 29 29
29 28 28 29 29 29 29 29 28 28 28 28 28 29 28 28 28 28 28 27 26 26 26 26 25 26 26 26 26 27 27 27 28 28 28 28 29 29 30 30 30 30 30
27 27 27 27 28 28 28 28 28 27 27 27 27 27 27 26 26 26 26 25 25 24 24 24 24 25 25 24 24 25 26 26 27 27 27 28 28 29 30 30 31 30 31
26 26 27 27 26 25 25 25 25 25 25 25 25 26 26 25 25 25 25 24 24 24 24 25 25 25 25 25 25 25 26 26 27 28 28 28 28 29 29 30 30 31 31
25 25 25 24 24 23 23 23 23 23 24 24 25 25 25 24 25 25 24 24 24 24 24 24 24 24 25 25 25 25 26 27 27 28 28 28 28 29 29 30 31 31 30
22 22 22 21 20 20 20 21 22 23 23 23 24 24 24 24 24 24 24 24 24 24 24 24 25 25 25 25 25 26 26 27 28 28 28 29 29 30 30 31 31 30 30
21 20 20 19 19 20 21 21 22 23 23 23 24 24 24 23 22 22 22 23 24 24 24 24 25 25 26 26 27 27 28 28 28 28 28 29 29 30 30 31 31 31 31
Wind_Direction
278 280 281 283 286 288 290 290 289 288 292 296 300 302 303 304 304 305 308 308 306 305 303 302 302 302 302 302 301 298 297 298 299 300 300 300 298 294 292 292 293 293 294
275 276 277 279 281 283 285 287 285 284 289 293 297 300 301 303 302 303 303 304 304 304 303 302 302 301 300 298 298 298 296 295 296 296 295 295 296 296 293 292 292 292 292
273 274 276 276 278 280 281 283 281 282 286 290 294 297 299 301 302 303 302 302 302 302 302 301 301 301 300 298 298 296 295 293 293 293 292 291 292 293 291 291 290 290 291
272 273 274 274 275 276 279 280 279 280 284 288 291 293 295 297 300 301 301 300 301 301 301 301 300 300 298 297 296 296 294 293 292 292 292 291 291 290 290 290 289 290 289
271 272 274 273 273 274 276 278 278 279 282 286 288 290 293 294 296 298 298 299 299 299 299 298 298 299 298 296 295 295 294 292 291 291 291 290 290 290 290 290 289 289 289
270 271 272 271 271 273 274 276 276 277 280 283 286 289 290 292 294 294 296 297 297 297 296 296 296 297 297 295 295 294 293 292 291 291 291 290 290 291 289 289 289 289 288
269 268 270 270 271 271 270 273 275 275 277 280 283 285 287 289 291 292 293 294 296 296 295 294 294 295 295 294 293 293 292 291 290 290 290 291 290 290 289 288 288 289 289
265 266 267 268 269 270 269 270 271 273 275 279 281 283 285 288 289 290 291 293 294 295 294 294 294 294 292 291 291 292 292 291 290 289 290 289 290 290 289 287 287 287 288
264 265 265 267 267 269 269 271 272 273 275 279 281 282 284 285 287 288 289 290 292 292 293 293 292 292 291 290 290 291 291 291 290 290 290 289 289 289 288 287 287 286 286
264 265 266 267 267 269 270 271 271 273 275 278 279 281 284 286 287 288 288 290 292 292 291 291 292 292 292 290 289 289 288 289 289 288 289 288 289 289 288 288 286 285 284
265 265 267 269 271 271 269 269 272 274 276 278 280 281 282 284 286 286 288 289 290 290 291 291 292 293 293 291 289 287 287 288 288 288 287 287 287 288 287 286 285 285 285
265 266 268 270 272 272 271 271 273 274 276 278 280 280 281 282 283 285 287 287 288 289 291 291 292 293 292 291 289 287 287 287 287 286 285 286 286 286 286 286 285 286 286
267 268 270 271 272 272 273 273 274 275 276 277 278 279 281 282 282 285 285 286 288 289 289 290 290 290 291 290 291 290 288 288 287 286 286 286 286 286 286 287 287 287 286
266 268 269 270 271 272 273 274 275 275 276 277 277 277 280 282 284 285 286 286 286 287 287 288 289 289 289 292 292 291 290 290 290 288 287 287 287 286 286 286 287 286 286
267 267 268 269 270 271 273 274 275 275 276 277 277 278 279 280 283 285 285 286 286 287 288 287 287 287 289 289 291 291 290 290 289 287 288 287 288 286 284 284 285 286 287
266 268 269 270 271 272 271 272 273 275 276 276 277 279 281 283 284 285 285 285 285 285 286 286 286 287 287 288 289 289 290 291 292 291 291 289 288 287 287 287 287 287 287
268 269 271 271 271 271 273 274 275 276 277 277 278 280 282 284 286 287 286 284 283 283 283 285 286 287 287 288 288 288 289 291 292 292 292 290 289 289 288 287 286 288 289
268 271 272 272 272 273 275 276 277 278 278 278 279 280 281 282 284 284 284 283 283 282 283 285 286 287 289 289 288 288 289 291 292 292 291 290 289 290 289 288 288 288 289
270 271 272 273 274 275 276 278 278 279 279 279 280 281 281 281 282 281 281 282 283 284 285 286 287 288 288 289 289 289 290 291 291 292 291 291 291 292 291 289 288 288 289
270 271 272 273 275 275 275 276 277 279 281 282 282 282 281 282 282 281 281 282 283 285 285 287 287 287 288 289 290 290 291 292 292 292 292 291 291 292 293 291 289 289 289
268 270 271 272 273 273 273 274 275 277 280 282 283 284 282 281 282 283 283 283 285 286 286 286 285 286 287 289 290 290 292 293 293 293 293 293 292 292 293 292 290 290 290
269 271 272 273 272 274 274 273 274 276 279 281 283 284 284 284 284 284 284 283 283 284 284 284 286 288 290 292 293 293 293 294 293 293 293 294 294 295 295 294 291 290 291
269 271 273 274 274 273 274 274 275 277 279 281 282 283 285 285 283 282 282 282 283 283 284 286 288 290 291 292 294 295 296 296 295 295 296 296 296 295 294 294 293 292 293
270 271 272 272 272 272 272 273 274 276 279 281 282 283 284 283 283 282 281 282 283 285 286 287 288 289 291 293 293 294 296 296 296 296 296 297 297 296 296 295 296 296 295
269 271 273 273 272 272 273 275 276 278 279 282 283 283 284 283 283 282 283 283 283 285 286 287 288 289 291 294 295 296 297 298 299 298 297 296 296 296 297 297 297 296 297
266 268 272 273 273 272 273 275 277 279 280 281 282 283 284 284 285 283 284 284 284 285 286 287 288 289 291 293 295 296 298 299 299 298 297 298 299 299 299 298 298 298 298
Height
5892 5891 5891 5891 5891 5891 5891 5891 5891 5891 5890 5889 5889 5888 5887 5886 5885 5884 5882 5881 5880 5879 5877 5876 5875 5873 5872 5870 5869 5867 5866 5865 5864 5863 5862 5861 5860 5859 5857 5856 5855 5855 5853
5887 5887 5887 5887 5887 5887 5887 5887 5887 5886 5886 5886 5885 5885 5884 5883 5881 5880 5879 5877 5876 5874 5873 5871 5870 5868 5867 5865 5863 5862 5861 5859 5858 5858 5857 5855 5854 5853 5852 5850 5849 5848 5847
5881 5881 5882 5882 5882 5882 5882 5882 5882 5882 5882 5881 5881 5880 5879 5878 5877 5875 5874 5872 5871 5869 5867 5866 5864 5863 5861 5859 5858 5856 5855 5853 5852 5851 5850 5849 5848 5846 5845 5844 5842 5840 5839
5875 5875 5876 5877 5877 5877 5877 5877 5876 5877 5877 5876 5876 5875 5874 5873 5872 5870 5868 5867 5865 5864 5862 5860 5858 5857 5855 5853 5851 5850 5848 5846 5845 5843 5843 5842 5841 5839 5838 5836 5835 5833 5832
5869 5869 5870 5870 5870 5870 5871 5871 5871 5871 5871 5871 5870 5869 5868 5867 5866 5864 5863 5861 5859 5858 5856 5854 5852 5850 5848 5846 5844 5842 5840 5839 5837 5836 5835 5834 5833 5831 5830 5829 5827 5826 5825
5860 5862 5862 5863 5863 5863 5864 5864 5865 5865 5865 5865 5864 5863 5862 5861 5859 5858 5856 5855 5853 5851 5850 5847 5845 5843 5841 5838 5836 5835 5833 5831 5830 5829 5827 5826 5825 5823 5822 5820 5819 5818 5817
5852 5853 5854 5855 5856 5856 5856 5857 5857 5857 5857 5857 5856 5856 5855 5854 5852 5851 5849 5848 5846 5844 5842 5840 5838 5836 5833 5831 5829 5827 5825 5823 5822 5821 5819 5818 5816 5815 5813 5812 5811 5810 5809
5845 5846 5846 5847 5847 5848 5848 5849 5849 5849 5848 5848 5849 5848 5847 5846 5844 5843 5841 5840 5838 5836 5834 5832 5830 5827 5825 5823 5821 5819 5817 5815 5813 5812 5811 5809 5807 5806 5804 5803 5802 5801 5800
5836 5837 5838 5838 5839 5839 5840 5840 5841 5841 5840 5840 5840 5839 5839 5837 5835 5834 5833 5831 5829 5828 5825 5823 5821 5818 5816 5814 5813 5811 5809 5807 5805 5803 5802 5800 5798 5796 5795 5794 5792 5791 5790
5828 5828 5829 5829 5829 5830 5831 5831 5831 5831 5830 5831 5830 5830 5829 5828 5827 5825 5824 5822 5820 5819 5817 5814 5812 5809 5807 5805 5803 5802 5800 5798 5796 5794 5793 5791 5789 5787 5786 5784 5783 5782 5780
5819 5819 5820 5820 5821 5821 5821 5821 5821 5822 5822 5821 5821 5821 5820 5819 5818 5816 5814 5813 5811 5809 5807 5805 5803 5800 5798 5796 5794 5792 5790 5788 5786 5785 5784 5782 5780 5778 5776 5775 5773 5772 5771
5810 5811 5811 5811 5811 5812 5812 5812 5812 5812 5812 5812 5811 5810 5809 5808 5808 5806 5805 5803 5801 5799 5797 5796 5793 5791 5788 5786 5784 5781 5780 5778 5777 5775 5774 5772 5771 5769 5767 5765 5764 5762 5761
5801 5802 5802 5802 5802 5802 5802 5802 5802 5802 5802 5802 5801 5800 5799 5798 5797 5796 5795 5793 5791 5790 5788 5786 5784 5782 5778 5775 5774 5772 5770 5769 5767 5766 5764 5762 5761 5760 5758 5756 5755 5753 5752
5792 5792 5792 5793 5793 5793 5792 5792 5792 5792 5792 5791 5790 5789 5789 5788 5787 5786 5784 5783 5781 5780 5778 5776 5774 5772 5770 5768 5765 5763 5761 5759 5757 5756 5754 5753 5751 5750 5748 5747 5745 5744 5743
5782 5783 5783 5783 5783 5783 5783 5783 5782 5782 5781 5781 5780 5779 5779 5778 5777 5776 5774 5773 5771 5770 5768 5766 5765 5763 5761 5759 5757 5754 5752 5750 5748 5747 5745 5743 5742 5740 5739 5737 5736 5735 5734
5773 5773 5773 5774 5774 5773 5773 5773 5772 5772 5771 5771 5770 5769 5768 5768 5767 5766 5765 5763 5762 5760 5758 5756 5755 5753 5751 5750 5748 5746 5744 5742 5740 5738 5736 5735 5733 5731 5730 5728 5727 5725 5724
5763 5763 5764 5764 5764 5764 5764 5763 5763 5763 5762 5762 5761 5760 5759 5758 5757 5756 5755 5753 5752 5750 5749 5747 5745 5744 5742 5741 5739 5737 5735 5733 5731 5729 5728 5726 5724 5722 5720 5719 5718 5716 5715
5754 5755 5755 5755 5755 5755 5755 5755 5754 5754 5754 5753 5752 5751 5750 5749 5748 5746 5745 5744 5742 5741 5739 5738 5736 5735 5733 5732 5730 5728 5726 5724 5722 5720 5719 5717 5715 5713 5711 5710 5708 5707 5705
5745 5746 5746 5746 5746 5746 5746 5745 5745 5745 5744 5743 5743 5742 5741 5740 5738 5737 5736 5734 5733 5732 5730 5729 5727 5725 5724 5722 5721 5719 5717 5715 5713 5711 5710 5708 5706 5704 5702 5701 5699 5697 5696
5736 5737 5737 5737 5737 5737 5737 5737 5737 5736 5735 5735 5733 5732 5731 5730 5729 5728 5727 5725 5724 5723 5721 5720 5719 5717 5715 5713 5712 5710 5708 5706 5704 5702 5700 5698 5697 5695 5693 5691 5689 5687 5686
5728 5728 5728 5728 5728 5729 5729 5729 5728 5728 5727 5726 5725 5723 5722 5721 5720 5719 5718 5717 5715 5714 5713 5712 5710 5709 5707 5705 5703 5701 5699 5697 5696 5693 5691 5689 5687 5685 5683 5682 5680 5678 5676
5719 5720 5720 5720 5720 5720 5720 5720 5720 5720 5719 5718 5716 5715 5714 5713 5713 5712 5711 5709 5708 5706 5705 5704 5703 5701 5699 5697 5695 5693 5691 5689 5687 5685 5682 5680 5678 5676 5674 5672 5670 5668 5666
5711 5712 5712 5712 5712 5712 5712 5712 5712 5711 5711 5710 5709 5708 5707 5706 5705 5704 5703 5701 5700 5699 5698 5697 5695 5693 5692 5689 5687 5685 5683 5681 5678 5676 5674 5672 5670 5667 5665 5662 5660 5658 5656
5704 5704 5704 5704 5704 5705 5704 5704 5704 5704 5703 5703 5702 5701 5700 5698 5697 5696 5695 5694 5693 5692 5691 5689 5687 5686 5684 5682 5679 5677 5675 5672 5670 5668 5665 5663 5661 5658 5656 5654 5651 5648 5646
5697 5697 5697 5697 5698 5698 5698 5697 5697 5697 5696 5695 5694 5693 5692 5690 5689 5688 5687 5686 5685 5684 5683 5681 5680 5678 5676 5674 5672 5669 5667 5664 5661 5659 5657 5654 5652 5649 5647 5644 5642 5639 5637
5691 5691 5691 5691 5691 5691 5691 5690 5690 5689 5689 5688 5687 5686 5684 5682 5680 5679 5678 5678 5677 5676 5675 5673 5672 5670 5668 5666 5664 5661 5659 5656 5653 5651 5648 5646 5643 5640 5638 5635 5633 5630 5628